Silver Peak Trail, Santa Catalina Island Weather observations

Data are for 10 minute period ending at time listed.
 Day   Time   Solar   Ave.   Ave.  Ave.  Vector    Max.   Stn.    Total
  of    of     Rad.   Air    Rel.  Wind   Wind     Wind   Baro.  Precip.
Year   Day            Temp.  Hum.  Speed  Dir.     Gust   Pres.         
2014   (PST)   W/m2    F      %     mph   deg.      mph    mb.     in.  
------------------------------------------------------------------------
 262   20:10    0.0    61   94.9     5    279.6     9.0    999.0   0.00  
 262   20:20    0.0    60   95.1     4    302.0     9.0    999.0   0.00  
 262   20:30    0.0    60   95.3     3    272.1     5.4    999.0   0.00  
 262   20:40    0.0    60   95.3     3    296.8     4.8    999.0   0.00  
 262   20:50    0.0    60   95.3     3    251.8     7.2    999.0   0.00  
 262   21:00    0.0    60   95.3     2    207.5     6.0    999.0   0.00  
 262   21:10    0.0    60   95.3     3    220.5     5.4    999.0   0.00  
 262   21:20    0.0    60   95.3     4    221.0     6.0    999.0   0.00  
 262   21:30    0.0    60   95.3     3    205.9     5.4    999.0   0.00  
 262   21:40    0.0    60   95.4     2    169.2     4.2    999.0   0.00  
 262   21:50    0.0    60   95.5     2     12.1     3.6    999.0   0.00  
 262   22:00    0.0    60   95.5     4     31.8     6.0    999.0   0.00  
 262   22:10    0.0    60   95.6     2     40.1     4.2    999.0   0.00  
 262   22:20    0.0    59   95.7     2    202.9     4.2    999.0   0.00  
 262   22:30    0.0    59   95.7     4    248.4     4.8    999.0   0.00  
 262   22:40    0.0    59   95.7     3    233.6     4.2    999.0   0.00  
 262   22:50    0.0    59   95.8     2    250.5     3.6    999.0   0.00  
 262   23:00    0.0    59   95.8     3    232.9     4.2    999.0   0.00  
 262   23:10    0.0    59   95.8     2    242.8     4.8    999.0   0.00  
 262   23:20    0.0    59   95.8     3    238.5     4.8    999.0   0.00  
 262   23:30    0.0    59   95.8     3    248.0     5.4    999.0   0.00  
 262   23:40    0.0    59   95.9     5    242.7     7.2    999.0   0.00  
 262   23:50    0.0    59   95.9     6    221.7     9.0    999.0   0.00  
 263    0:00    0.0    59   95.9     6    223.7     9.0    999.0   0.00  
 263    0:10    0.0    59   96.0     5    228.0     7.2    999.0   0.00  
 263    0:20    0.0    59   96.1     6    210.6     7.8    999.0   0.00  
 263    0:30    0.0    59   96.1     4    216.4     6.0    999.0   0.00  
 263    0:40    0.0    59   96.2     4    185.9     6.0    999.0   0.00  
 263    0:50    0.0    59   96.3     3    196.5     4.2    999.0   0.00  
 263    1:00    0.0    59   96.2     4    196.2     5.4    999.0   0.00  
 263    1:10    0.0    59   96.2     5    202.0     7.2    999.0   0.00  
 263    1:20    0.0    59   96.3     7    217.2     9.0    999.0   0.00  
 263    1:30    0.0    59   96.3     5    208.3     8.4    999.0   0.00  
 263    1:40    0.0    60   96.4     4    209.8     6.0    999.0   0.00  
 263    1:50    0.0    60   96.4     5    212.0     6.6    999.0   0.00  
 263    2:00    0.0    60   96.5     5    206.1     8.4    999.0   0.00  
 263    2:10    0.0    60   96.5     6    209.6     8.4    999.0   0.00  
 263    2:20    0.0    60   96.5     7    215.6     9.6    999.0   0.00  
 263    2:30    0.0    60   96.5     8    221.2    11.3    999.0   0.00  
 263    2:40    0.0    60   96.5     7    224.8    10.8    999.0   0.00  
 263    2:50    0.0    60   96.5     6    221.4    11.9    999.0   0.00  
 263    3:00    0.0    60   96.5     7    219.3    11.9    999.0   0.00  
 263    3:10    0.0    59   96.5     9    217.6    13.7    999.0   0.00  
 263    3:20    0.0    59   96.4     9    218.9    11.9    999.0   0.00  
 263    3:30    0.0    59   96.5    11    218.7    14.3    999.0   0.00  
 263    3:40    0.0    59   96.4    12    215.7    14.3    999.0   0.00  
 263    3:50    0.0    59   96.3    10    214.9    12.5    999.0   0.00  
 263    4:00    0.0    59   96.0     9    216.1    10.8    999.0   0.00  
 263    4:10    0.0    59   95.3     7    207.0     9.0    999.0   0.00  
 263    4:20    0.0    59   94.8     7    184.9     9.0    999.0   0.00  
 263    4:30    0.0    59   94.9     6    193.1     8.4    999.0   0.00  
 263    4:40    0.0    59   95.1     5    177.0     7.8    999.0   0.00  
 263    4:50    0.0    58   95.0     4    180.5     6.0    999.0   0.00  
 263    5:00    0.0    59   94.8     4    159.8     4.8    999.0   0.00  
 263    5:10    0.0    58   94.4     4    140.2     5.4    999.0   0.00  
 263    5:20    0.0    58   94.1     4    152.7     6.0    999.0   0.00  
 263    5:30    0.0    59   93.9     5    165.5     7.2    999.0   0.00  
 263    5:40    2.0    59   93.6     6    160.5     7.8    999.0   0.00  
 263    5:50    7.0    59   93.4     5    179.5     7.8    999.0   0.00  
 263    6:00   25.0    59   93.2     5    202.0     6.0    999.0   0.00  
 263    6:10   44.0    59   93.2     6    223.6     8.4    999.0   0.00  
 263    6:20   95.0    59   93.4     6    222.6     9.0    999.0   0.00  
 263    6:30   77.0    60   93.3     7    216.6    10.2    999.0   0.00  
 263    6:40   60.0    60   93.7     6    217.5     8.4    999.0   0.00  
 263    6:50   79.0    60   93.4     6    230.1    10.2    999.0   0.00  
 263    7:00  110.0    60   92.9     6    216.9    10.2    999.0   0.00  
 263    7:10  162.0    61   92.4     6    226.9     9.0    999.0   0.00  
 263    7:20  187.0    61   91.4     6    217.2     9.6    999.0   0.00  
 263    7:30  168.0    62   90.1     6    222.5     9.0    999.0   0.00  
 263    7:40  169.0    62   89.4     6    225.5     8.4    999.0   0.00  
 263    7:50  159.0    63   87.9     5    229.0     7.8    999.0   0.00  
 263    8:00  220.0    63   86.9     6    220.3     8.4    999.0   0.00  
 263    8:10  268.0    63   85.6     4    216.8     6.6    999.0   0.00  
 263    8:20  291.0    64   83.1     4    213.8     7.2    999.0   0.00  
 263    8:30  273.0    65   81.7     5    223.3     9.6    999.0   0.00  
 263    8:40  305.0    64   82.5     5    228.5     8.4    999.0   0.00  
 263    8:50  328.0    65   80.9     4    234.8     7.2    999.0   0.00  
 263    9:00  327.0    66   78.8     4    218.6     6.6    999.0   0.00  
 263    9:10  330.0    67   77.3     5    223.2     8.4    999.0   0.00  
 263    9:20  355.0    66   77.9     5    209.7     9.0    999.0   0.00  
 263    9:30  412.0    68   75.6     5    217.3     9.0    999.0   0.00  
 263    9:40  418.0    69   72.7     4    224.0     6.0    999.0   0.00  
 263    9:50  520.0    69   72.7     4    234.4     8.4    999.0   0.00  
 263   10:00  584.0    70   73.2     3    237.9     6.6    999.0   0.00  
 263   10:10  269.0    68   75.5     3    223.4     6.0    999.0   0.00  
 263   10:20  238.0    67   78.2     4    321.3     7.8    999.0   0.00  
 263   10:30  242.0    66   80.8     4    288.1     6.0    999.0   0.00  
 263   10:40  271.0    66   79.4     3    287.4     4.8    999.0   0.00  
 263   10:50  309.0    67   77.7     3    250.2     6.6    999.0   0.00  
 263   11:00  403.0    67   77.1     3    265.8     4.8    999.0   0.00  
 263   11:10  394.0    68   76.6     4    168.8     7.2    999.0   0.00  
 263   11:20  439.0    69   74.2     3    223.5     6.6    999.0   0.00  
 263   11:30  312.0    69   73.9     3    185.5     7.2    999.0   0.00  
 263   11:40  245.0    68   77.2     2    268.8     4.8    999.0   0.00  
 263   11:50  197.0    66   81.7     3    133.4     6.0    999.0   0.00  
 263   12:00  249.0    66   82.4     3    214.4     9.6    999.0   0.00  
 263   12:10  279.0    67   80.5     2     47.4     4.8    999.0   0.00  
 263   12:20  303.0    67   80.1     2     30.2     4.8    999.0   0.00  
 263   12:30  403.0    68   77.7     2     76.7     4.8    999.0   0.00  
 263   12:40  512.0    69   75.0     3     73.8     6.6    999.0   0.00  
 263   12:50  578.0    69   74.9     3    144.0     6.6    999.0   0.00  
 263   13:00  862.0    71   71.3     3    302.5     6.0    999.0   0.00  
 263   13:10  788.0    72   67.5     3    184.4     7.2    999.0   0.00  
 263   13:20  847.0    70   70.4     3     24.7     7.8    999.0   0.00  
 263   13:30  817.0    70   70.0     2     21.0     3.6    999.0   0.00  
 263   13:40  869.0    71   68.9     3    293.5     7.8    999.0   0.00  
 263   13:50  844.0    72   68.5     2      8.1     4.8    999.0   0.00  
 263   14:00  718.0    72   68.2     3    195.2     8.4    999.0   0.00  
 263   14:10  702.0    72   68.0     4    218.5     9.0    999.0   0.00  
 263   14:20  805.0    73   66.9     3    199.1     6.0    999.0   0.00  
 263   14:30  697.0    73   65.9     4    165.3    10.8    999.0   0.00  
 263   14:40  652.0    74   65.3     4    204.8     9.0    999.0   0.00  
 263   14:50  612.0    73   66.9     3    230.0     6.6    999.0   0.00  
 263   15:00  585.0    74   64.2     6    213.4    11.3    999.0   0.00  
 263   15:10  554.0    73   63.8     7    213.3    13.7    999.0   0.00  
 263   15:20  523.0    73   63.7     6    210.5    12.5    999.0   0.00  
 263   15:30  492.0    72   65.3     7    220.4    12.5    999.0   0.00  
 263   15:40  460.0    73   64.1     8    212.5    13.1    999.0   0.00  
 263   15:50  426.0    71   66.5     7    231.2    10.8    999.0   0.00  
 263   16:00  393.0    70   66.2     8    229.5    12.5    999.0   0.00  
 263   16:10  358.0    69   68.2     8    235.2    13.7    999.0   0.00  
 263   16:20  323.0    69   69.0     9    225.2    14.3    999.0   0.00  
 263   16:30  287.0    68   71.4     8    236.7    15.5    999.0   0.00  
 263   16:40  252.0    68   72.6     7    232.5    11.9    999.0   0.00  
 263   16:50  217.0    66   75.7     7    244.2    12.5    999.0   0.00  
 263   17:00  172.0    66   78.2    10    236.6    15.5    999.0   0.00  
 263   17:10   51.0    64   81.8    12    226.6    18.5    999.0   0.00  
 263   17:20   34.0    63   85.0    12    220.3    18.5    999.0   0.00  
 263   17:30   23.0    63   87.2    11    222.4    17.3    999.0   0.00  
 263   17:40   15.0    62   88.6    10    225.4    14.3    999.0   0.00  
 263   17:50    8.0    62   89.9     9    223.4    14.9    999.0   0.00  
 263   18:00    4.0    62   90.7     9    218.9    14.3    999.0   0.00  
 263   18:10    1.0    61   91.0    10    217.2    17.9    999.0   0.00  
 263   18:20    0.0    61   91.3    10    220.0    15.5    999.0   0.00  
 263   18:30    0.0    61   92.0    12    215.5    17.3    999.0   0.00  
 263   18:40    0.0    60   92.7    11    218.5    16.7    999.0   0.00  
 263   18:50    0.0    60   92.9     8    215.7    14.3    999.0   0.00  
 263   19:00    0.0    60   93.0     9    215.3    14.9    999.0   0.00  
 263   19:10    0.0    60   93.3    10    214.3    13.7    999.0   0.00  
 263   19:20    0.0    60   93.4     9    213.3    12.5    999.0   0.00  
 263   19:30    0.0    60   93.8     9    215.6    12.5    999.0   0.00  
 263   19:40    0.0    59   94.1     8    225.1    10.8    999.0   0.00  
 263   19:50    0.0    59   94.2     8    240.5    10.8    999.0   0.00  
 263   20:00    0.0    59   94.4     7    233.0    10.8    999.0   0.00  

Return to Silver Peak Trail graphs page.


Western Regional Climate Center,wrcc@dri.edu